Lapse_Rate
5.2 5.0 5.0 5.1 4.8 4.5 4.3 4.4 4.5 4.7 4.6 3.9 4.0 4.0 4.3 4.6 4.4 4.2 3.9 3.7 3.6 3.5 3.5 3.6 4.4 4.3 6.2 6.6 6.7 6.9 7.0 7.5 7.8 7.7 7.3 7.5 7.7 7.2 7.2 7.3 7.2 7.3 7.5 7.6
5.2 5.0 5.2 5.3 5.1 4.8 4.3 4.2 4.5 4.5 4.7 4.3 5.1 4.7 5.3 5.0 5.6 4.5 4.4 4.2 4.2 3.9 3.8 3.7 3.9 4.4 5.3 5.6 6.5 6.9 7.0 7.1 7.5 7.7 7.5 7.6 7.7 7.6 7.3 7.3 7.2 7.3 7.4 7.6
5.4 5.0 5.2 5.2 4.7 4.2 4.3 4.3 4.6 4.3 4.6 6.0 6.2 5.7 8.2 7.2 6.3 5.8 6.1 6.4 6.0 5.0 4.9 4.6 4.1 4.1 4.8 5.1 6.2 6.7 7.0 7.1 7.4 7.7 7.8 7.3 7.3 7.5 7.4 7.4 7.4 7.5 7.4 7.5
5.5 5.5 5.3 4.9 4.7 4.2 4.7 5.3 5.1 5.5 6.0 6.8 7.5 7.1 8.2 7.0 6.7 5.3 6.1 6.3 6.4 6.7 6.5 6.4 5.6 4.6 4.7 5.2 5.8 6.3 7.2 7.2 7.8 7.9 7.7 7.2 7.2 7.9 7.9 7.5 7.5 7.7 7.8 7.7
5.3 5.2 5.2 4.8 4.6 5.1 5.8 5.7 5.9 6.2 6.6 7.1 8.4 8.0 9.3 5.9 5.8 5.9 5.3 5.3 5.5 5.5 6.2 6.6 6.8 6.7 6.1 6.3 6.3 6.2 7.1 7.3 7.7 8.0 7.6 7.4 7.6 8.1 8.0 7.8 7.8 8.0 8.0 7.8
5.4 5.5 5.4 5.1 5.4 6.0 6.3 6.1 6.2 6.6 7.3 8.2 8.5 8.1 7.1 5.1 4.7 5.0 4.9 5.2 5.4 5.2 5.7 6.2 6.7 7.3 7.8 7.5 7.1 6.7 6.8 7.6 7.8 8.0 8.1 7.2 5.6 7.9 8.0 8.2 8.1 8.0 8.1 8.0
5.2 5.7 5.9 6.1 5.9 6.2 6.1 6.1 7.7 8.1 8.1 9.1 8.5 8.2 5.3 5.3 4.7 4.5 4.5 4.7 5.1 4.6 5.5 6.2 6.7 7.2 8.0 7.9 7.8 7.5 7.6 8.0 7.9 8.1 8.3 8.0 7.6 8.3 8.2 8.1 8.0 7.9 7.9 7.9
5.6 6.3 6.1 6.4 6.4 6.5 6.3 6.3 7.5 8.1 8.8 8.9 8.1 7.9 5.5 5.6 4.7 4.7 4.5 4.0 4.2 4.7 5.4 6.5 6.7 7.2 7.4 7.7 8.0 7.8 7.3 7.5 8.1 8.4 8.1 8.2 8.2 8.1 7.9 7.8 7.6 7.6 7.8 7.9
4.9 6.4 6.2 6.4 6.3 6.0 6.1 6.2 6.8 7.1 7.5 7.7 7.9 5.8 5.7 5.7 5.2 4.9 4.7 4.6 4.4 4.7 4.9 5.9 6.6 6.7 7.0 7.1 7.8 7.9 7.0 6.9 7.0 7.8 8.1 8.1 8.1 7.9 7.7 7.7 7.7 7.4 7.3 7.5
4.8 5.5 6.3 6.4 6.3 6.0 6.0 6.2 6.6 6.9 7.4 7.8 8.1 6.0 5.6 5.5 5.1 4.8 4.9 4.7 4.5 4.5 4.5 5.0 6.2 6.6 7.1 6.8 7.1 7.5 7.4 7.4 7.1 6.7 7.8 8.1 8.1 7.9 7.8 7.8 7.4 6.9 7.3 7.1
4.8 5.4 6.5 6.4 6.2 6.0 6.0 6.2 6.5 7.0 7.3 7.8 8.0 5.9 4.6 5.0 4.9 4.8 4.7 4.6 4.7 4.5 4.4 4.8 5.7 6.1 6.7 6.7 6.8 7.7 7.8 7.7 7.6 7.5 7.5 7.4 7.3 7.2 6.9 7.3 7.1 7.4 6.9 7.0
5.2 5.6 5.9 6.5 6.3 6.0 6.1 6.5 6.9 7.0 7.5 7.4 6.7 5.6 5.0 5.2 5.0 4.9 4.8 4.6 4.6 4.5 4.6 4.7 5.0 5.2 5.7 6.3 6.7 7.0 7.6 7.7 7.5 7.2 7.0 6.9 6.7 7.1 6.7 6.8 6.9 6.6 6.3 7.0
5.6 5.8 7.0 7.3 6.3 6.1 5.9 6.2 6.5 6.8 6.6 6.7 7.1 5.4 4.9 5.0 5.0 5.0 4.8 4.7 4.6 4.6 4.7 4.8 4.6 5.0 5.1 5.5 6.0 6.8 6.9 6.9 6.7 6.8 6.6 6.3 6.3 5.7 6.1 6.3 6.6 6.5 6.9 6.8
6.0 5.9 5.9 6.3 5.2 4.8 4.8 5.3 5.9 6.0 6.6 6.2 5.2 4.9 4.9 4.9 5.2 5.1 4.9 4.9 4.9 4.8 4.9 4.8 4.7 4.5 4.7 4.8 5.1 5.3 6.0 5.9 6.2 5.7 5.9 5.9 6.1 5.9 5.9 6.1 6.3 6.6 6.5 6.5
6.3 6.2 5.7 5.7 5.2 4.9 4.7 5.2 5.9 6.1 6.0 5.9 5.0 5.1 5.1 5.1 5.1 5.1 5.0 5.1 5.1 4.9 4.6 4.6 4.7 4.7 4.7 4.8 4.8 4.8 4.8 5.0 5.5 5.5 5.8 5.8 5.8 5.8 5.8 6.3 5.9 6.3 6.6 6.8
6.5 6.4 6.0 6.0 5.5 5.4 5.0 5.0 5.0 4.9 5.0 4.9 5.0 4.9 4.9 4.8 4.8 5.0 5.2 5.1 5.0 5.0 4.8 4.6 4.6 5.2 5.1 5.1 4.8 4.8 4.4 4.6 5.0 5.3 5.5 5.6 5.7 5.8 6.0 6.0 6.0 6.2 6.2 6.3
6.5 6.3 6.4 6.7 6.4 5.9 5.6 5.0 4.9 4.8 4.8 4.7 4.9 5.0 4.8 4.8 4.9 5.1 5.3 5.2 5.1 5.0 5.0 4.7 4.9 5.2 5.2 5.5 5.4 5.3 5.1 4.9 5.1 5.3 5.7 5.8 5.6 5.5 5.5 5.3 5.2 5.5 5.5 5.5
6.4 6.0 6.3 6.9 6.5 6.9 5.6 5.2 5.0 5.1 5.2 5.1 5.1 5.0 4.8 4.9 5.0 5.0 5.1 5.3 5.3 5.2 5.2 5.2 5.2 5.2 5.3 5.4 5.3 5.3 5.3 5.5 5.7 5.9 5.8 5.8 5.8 5.7 5.8 5.7 5.5 5.4 5.3 5.3
6.6 6.4 6.5 7.0 7.1 5.7 5.5 5.5 5.2 5.1 5.1 5.2 5.1 5.1 5.1 5.1 5.0 5.0 5.2 5.4 5.4 5.4 5.4 5.4 5.5 5.4 5.5 5.6 5.6 5.4 5.5 5.7 6.0 6.1 6.1 6.2 6.0 5.8 5.8 5.8 5.9 5.8 5.8 5.6
6.5 6.5 6.2 6.6 7.1 7.1 5.5 5.8 5.5 5.4 5.1 5.4 5.4 5.5 5.4 5.3 4.6 5.2 5.5 5.6 5.5 5.4 5.5 5.4 5.4 5.3 5.3 5.5 5.6 5.6 5.7 5.8 6.0 6.1 6.1 6.0 5.9 6.0 6.0 6.0 6.0 6.0 5.9 5.8
6.5 6.4 6.6 6.6 6.7 5.9 5.8 5.9 5.7 5.6 5.7 5.6 5.5 5.8 5.7 5.5 5.3 5.4 5.7 5.7 5.6 5.6 5.5 5.5 5.4 5.5 5.6 5.6 5.6 5.6 5.6 5.8 5.9 5.9 5.9 5.9 6.0 6.0 6.0 5.9 5.9 6.0 5.9 5.8
6.6 6.7 6.7 6.4 6.6 6.7 6.1 5.9 5.8 6.0 6.0 5.9 5.9 5.8 5.7 5.6 5.6 5.7 5.7 5.6 5.7 5.7 5.6 5.5 5.5 5.5 5.6 5.5 5.5 5.5 5.5 5.6 5.6 5.6 5.5 5.5 5.5 5.6 5.5 5.6 5.6 5.6 5.5 5.5
6.7 6.5 6.6 6.7 6.5 6.4 6.3 6.2 6.1 6.2 6.2 6.0 5.8 5.8 5.8 5.8 5.8 5.8 5.7 5.6 5.7 5.6 5.6 5.6 5.6 5.6 5.6 5.5 5.4 5.4 5.4 5.5 5.5 5.5 5.5 5.5 5.5 5.5 5.5 5.5 5.5 5.5 5.6 5.6
7.1 7.1 7.0 6.6 6.4 6.4 6.2 6.3 6.1 6.1 6.4 6.2 6.0 6.0 5.9 5.9 5.8 5.7 5.7 5.6 5.5 5.5 5.5 5.5 5.5 5.5 5.4 5.4 5.5 5.5 5.4 5.4 5.4 5.5 5.5 5.5 5.6 5.6 5.7 5.8 5.9 6.0 5.9 5.9
7.0 7.3 7.2 7.0 6.6 6.4 6.3 6.3 6.2 6.1 6.2 6.4 6.3 6.2 6.1 6.0 5.9 5.8 5.7 5.7 5.6 5.6 5.6 5.5 5.5 5.4 5.4 5.4 5.5 5.6 5.7 5.9 6.0 6.1 6.2 6.2 6.2 6.2 6.2 6.3 6.2 6.2 6.1 6.1
7.1 7.4 7.2 6.9 6.8 6.8 6.6 6.7 6.6 6.6 6.6 6.7 6.6 6.4 6.3 6.1 6.0 5.9 5.9 5.7 5.6 5.5 5.4 5.4 5.5 5.6 5.7 5.9 6.2 6.4 6.4 6.4 6.4 6.3 6.2 6.2 6.1 5.9 5.8 5.8 5.8 5.9 5.8 5.8
Wind_Speed
1 6 7 9 8 11 14 16 21 17 13 16 17 24 27 24 19 19 18 18 20 23 24 21 20 15 14 17 15 17 19 19 16 16 16 14 14 14 13 12 15 17 17 18
5 6 3 3 5 8 12 16 20 17 5 15 20 25 26 16 16 18 16 17 18 20 20 20 18 15 13 14 13 15 19 20 18 16 15 14 14 13 13 12 14 17 17 18
6 2 3 7 7 9 13 15 18 22 19 17 11 19 13 14 12 15 18 20 19 18 19 18 16 14 12 13 13 13 15 15 17 17 13 14 12 11 11 12 13 15 17 17
6 1 5 7 8 7 13 7 11 13 14 12 13 13 20 10 13 19 17 18 19 19 17 16 15 14 13 13 12 13 11 12 8 11 13 19 16 14 12 12 11 12 16 18
5 4 6 8 5 3 5 6 10 11 14 16 10 9 6 16 17 22 20 19 18 18 17 16 14 13 12 13 12 11 12 8 6 4 3 9 13 12 10 9 10 9 11 17
11 3 6 10 5 7 8 9 12 11 8 6 2 6 8 11 16 18 20 19 20 19 16 16 15 13 12 12 12 11 10 10 10 9 11 14 10 10 7 5 6 6 6 7
3 7 4 9 10 3 4 6 3 3 5 6 5 11 6 14 15 14 19 19 19 19 18 15 17 14 14 14 13 11 12 13 12 12 13 12 7 7 6 4 3 3 6 7
2 6 11 10 6 6 3 6 5 5 5 11 5 2 4 8 12 16 15 17 20 21 18 18 16 14 14 15 13 13 14 12 15 13 13 11 11 6 5 7 4 4 4 5
1 5 5 9 10 5 2 6 2 8 10 6 3 5 3 14 15 14 17 19 18 18 18 17 16 15 14 14 14 14 15 15 15 17 13 13 13 12 10 9 7 5 6 5
3 5 5 2 3 12 12 7 4 5 4 5 3 3 6 14 15 14 17 17 18 17 18 17 17 15 16 15 13 15 17 18 19 16 15 13 14 14 12 10 10 12 11 11
2 4 2 6 4 6 5 9 8 5 6 4 5 5 6 9 11 13 14 15 16 17 17 16 17 17 15 16 16 17 17 17 16 16 16 14 15 15 12 13 14 14 13 13
2 2 4 8 6 4 8 11 12 5 4 4 2 3 7 8 10 11 13 14 15 14 15 15 17 16 17 20 20 19 18 18 17 16 15 16 17 17 17 16 16 16 15 13
4 3 4 1 5 4 5 5 11 10 8 7 4 5 6 8 10 11 14 14 14 16 17 16 17 17 18 18 19 18 18 17 16 19 20 19 19 16 17 16 15 14 14 14
5 2 1 2 2 7 10 15 14 10 3 5 4 7 7 9 11 13 14 14 14 15 17 17 15 16 18 17 19 17 19 19 20 20 17 16 16 15 13 13 14 15 15 15
3 4 7 12 9 12 10 12 10 4 4 2 7 6 6 8 9 10 11 12 15 17 19 19 19 18 18 20 18 18 17 17 17 15 17 16 14 15 15 15 15 14 16 15
3 3 5 8 7 5 11 13 8 13 14 13 12 7 5 6 7 9 11 12 13 14 16 17 18 19 20 19 17 19 18 16 16 17 17 16 17 17 16 15 16 17 17 16
2 1 3 4 4 5 2 7 8 11 10 4 4 6 6 6 8 10 11 11 12 14 15 16 16 16 15 15 15 16 16 16 17 17 17 18 17 17 18 18 18 18 16 17
1 1 3 2 6 4 6 7 10 12 9 9 10 9 7 8 9 10 10 10 11 12 13 14 13 14 14 15 15 15 16 17 18 18 17 17 17 17 18 18 18 18 16 17
3 1 3 3 1 6 7 5 3 2 4 4 5 8 8 8 6 11 10 9 9 10 10 10 10 10 12 14 14 14 15 16 17 16 17 17 18 18 18 19 18 16 15 16
4 2 4 4 4 6 6 4 2 3 4 3 1 4 9 9 3 4 7 8 8 9 10 10 11 11 12 12 14 15 15 16 15 15 15 14 15 15 15 15 15 14 13 13
3 2 4 3 2 4 3 2 4 5 4 5 6 5 4 5 6 6 4 6 6 7 10 9 11 11 13 13 13 15 15 13 13 14 12 14 14 13 14 14 12 12 11 11
2 2 3 2 3 4 2 4 4 8 9 9 9 10 13 12 10 8 6 5 7 8 10 10 10 11 13 14 13 14 15 14 13 13 14 14 13 12 11 14 13 13 13 12
3 3 2 4 4 5 6 9 10 9 11 10 11 10 10 10 8 7 6 7 8 9 8 9 10 11 13 14 13 15 15 15 14 15 15 15 16 13 12 14 13 13 13 12
3 2 2 5 4 6 7 7 7 8 10 10 10 10 8 9 8 8 7 7 7 8 9 8 10 11 12 13 13 13 14 14 13 14 14 13 13 13 13 11 11 11 12 11
3 6 6 4 6 7 4 7 10 11 11 11 10 9 9 9 8 8 7 7 6 7 7 8 9 10 11 11 12 12 13 14 13 13 12 13 11 12 11 10 9 9 11 12
5 5 3 2 12 2 12 11 11 11 11 10 10 9 8 8 9 8 8 6 6 7 7 7 9 9 10 10 11 12 13 13 12 11 10 9 9 9 9 9 8 13 11 16
Wind_Direction
226 256 256 312 303 294 290 287 289 291 305 300 293 294 301 307 309 298 296 298 307 312 314 294 290 296 303 297 305 268 241 212 208 203 195 198 203 205 205 206 205 202 204 212
210 254 4 291 277 268 270 279 283 291 260 302 298 300 295 306 350 20 354 331 327 325 324 318 321 322 321 314 310 293 262 222 208 205 201 200 204 205 210 204 206 210 202 203
271 50 269 282 280 267 269 276 288 294 312 284 293 298 320 333 39 17 353 339 337 332 324 319 315 312 328 326 325 308 286 260 211 212 202 195 204 207 206 207 214 211 211 206
269 148 276 284 283 277 284 304 291 296 314 313 325 297 305 351 344 359 348 345 341 335 333 328 326 322 337 337 330 320 296 260 265 237 206 194 186 196 206 212 212 211 213 213
83 253 274 275 282 268 295 292 293 295 293 302 296 279 317 10 351 343 347 347 346 342 335 335 334 335 347 348 344 343 335 342 307 218 5 198 193 204 197 205 218 207 212 222
265 255 268 238 282 260 281 296 275 270 280 262 327 284 59 11 343 343 349 349 351 354 341 339 339 348 359 355 351 356 6 8 16 32 48 68 293 220 210 211 193 198 202 209
262 206 222 231 258 188 224 282 296 246 202 275 326 304 44 4 4 353 351 350 358 3 356 339 348 359 3 4 357 360 11 20 27 47 48 58 69 55 60 56 25 233 198 210
341 191 206 178 264 315 274 292 294 290 313 316 329 315 53 18 13 359 2 355 358 3 1 350 349 354 5 10 5 11 26 18 21 35 48 52 49 42 44 20 6 317 316 234
214 237 193 219 262 250 109 240 327 274 258 267 103 102 237 21 9 2 4 1 359 360 358 350 348 360 5 10 11 17 29 29 27 22 32 40 38 32 24 13 357 331 321 314
124 273 262 109 275 232 235 296 227 213 278 297 92 111 4 3 360 358 4 359 355 359 359 355 359 356 5 9 14 24 32 34 33 17 26 36 36 32 24 23 5 1 350 330
211 234 182 289 216 297 226 224 230 265 265 283 298 92 18 20 6 4 4 359 355 356 358 360 0 2 6 7 16 25 29 36 37 27 37 31 40 32 27 28 18 12 342 350
153 241 284 297 338 332 262 247 232 245 215 252 300 98 30 36 17 16 7 3 356 359 358 1 3 2 7 14 17 22 17 24 28 33 34 32 39 30 24 27 17 11 7 355
159 180 299 75 162 55 312 282 266 287 292 252 277 96 44 36 26 25 10 5 3 6 7 7 5 6 10 14 14 18 19 20 24 28 33 26 29 24 24 23 18 18 10 9
195 99 289 24 347 310 312 313 267 249 253 116 50 111 44 32 28 21 9 9 7 16 14 12 9 10 11 11 19 12 13 13 21 28 31 29 28 24 25 26 28 27 24 19
185 157 139 138 107 51 10 15 28 76 29 2 119 98 58 38 32 27 11 8 13 16 16 14 12 12 14 13 15 20 20 19 24 27 30 29 33 34 31 31 28 31 33 30
156 150 205 188 199 98 31 21 59 84 91 98 116 96 83 72 46 32 23 17 16 15 17 16 15 18 17 11 9 19 20 22 25 28 27 24 26 30 36 37 38 36 34 29
124 319 213 159 176 188 160 8 51 72 49 135 114 112 135 98 64 36 23 25 23 16 13 15 17 15 13 13 17 20 23 25 29 30 28 24 24 26 29 32 34 36 34 33
151 257 259 156 185 197 118 116 87 78 60 79 106 141 135 114 96 59 33 23 25 20 17 16 16 14 13 12 19 21 23 29 30 29 28 25 25 27 26 29 30 32 32 33
211 305 262 248 113 109 162 175 207 317 80 42 149 163 157 162 173 69 34 31 29 24 25 23 25 27 16 19 21 27 26 27 30 26 25 22 24 23 23 25 23 26 31 27
185 209 245 197 223 212 97 148 225 294 155 36 88 157 183 191 241 65 26 25 33 27 31 28 29 30 33 22 23 29 28 26 22 26 21 25 25 26 22 20 20 21 23 26
206 210 242 194 231 116 75 184 176 241 102 109 83 97 129 114 58 101 71 50 36 29 36 31 37 34 27 23 34 28 28 29 26 19 30 25 25 23 23 21 22 20 18 22
222 219 197 204 209 195 45 168 246 116 124 118 95 91 99 110 116 102 82 68 68 49 40 35 37 36 32 28 26 30 24 22 27 29 26 29 28 27 23 24 18 19 15 21
180 344 11 353 38 91 62 92 119 125 126 122 114 109 112 116 113 111 95 72 57 52 46 36 36 36 34 30 25 26 17 12 17 25 22 22 21 27 22 21 21 18 15 18
137 128 102 184 118 115 105 99 107 116 122 121 120 120 128 118 110 101 84 72 62 50 42 34 36 36 32 27 26 22 13 10 17 24 22 17 24 14 23 31 21 25 17 15
54 154 139 86 134 130 133 121 119 116 116 114 110 113 116 121 113 107 95 82 67 57 47 38 35 33 29 24 24 20 12 11 14 19 19 12 16 16 18 34 35 31 36 26
181 158 195 127 162 235 155 144 136 132 129 124 124 122 120 124 124 122 110 94 78 63 47 43 36 30 26 24 24 16 10 11 11 17 10 17 11 12 14 13 15 76 47 32